Location: De Har
(53.3413°N, 6.6858°E)
Time: 16:29:43
(UTC+00:00)

Cosmos 1763 Rocket - Pass Details

Date: 22 April 2026
Orbit: 728 x 774 km, 74.0° (Epoch: 9 May)

Event Time Altitude Azimuth Distance (km) Brightness Sun altitude
Exits shadow 02:13:18 22° 193° (SSW) 1,631 4.7 -16.0°
Maximum altitude 02:16:43 73° 112° (ESE) 811 3.6 -15.7°
Drops below altitude 10° 02:22:01 10° 29° (NNE) 2,334 7.3 -15.1°
Sets 02:24:25 0° 28° (NNE) 3,266 8.3 -14.9°
